Regional Weather Roundup
Issued by NWS

Home | Current Version | Previous Version | Graphics & Text | Print | Product List | Glossary On
Versions: 1 2 3 4 5 6 7 8 9 10 11 12 13 14 15 16 17 18 19 20 21 22 23 24 25 26 27 28 29 30 31 32 33 34 35 36 37 38 39 40 41 42 43 44 45 46 47 48 49 50
000
ASUS43 KIND 251609
RWRIN

WEATHER ROUNDUP FOR INDIANA
NATIONAL WEATHER SERVICE INDIANAPOLIS IN
1100 AM EST THU DEC 25 2014

NOTE: "FAIR" INDICATES FEW OR NO CLOUDS BELOW 12,000 FEET WITH NO
SIGNIFICANT WEATHER AND/OR OBSTRUCTIONS TO VISIBILITY.

* - STATION DOES NOT REPORT WEATHER SUCH AS PRECIPITATION OR FOG.

+ - STATION NOT QUALITY CONTROLLED BY THE NATIONAL WEATHER SERVICE.
    USE DATA WITH CAUTION...ESPECIALLY DEWPOINT AND RELATIVE
    HUMIDITY OBSERVATIONS.

INZ001>003-010>013-019-020-251700-
NORTHWEST INDIANA

CITY           SKY/WX    TMP DP  RH WIND       PRES   REMARKS
GARY /AIRPORT/ CLOUDY    37  27  65 SW7       29.98R
KNOX *+        CLOUDY    35  28  74 W16G23    29.99R WCI  25
LA PORTE +     CLOUDY    37  32  82 SW14      29.99R
MICHIGAN CITY+ CLOUDY    34  27  75 SW14G21   29.99R WCI  24
MONTICELLO +   CLOUDY    36  32  87 SW15G22   30.02R
RENSSELAER +   CLOUDY    36  34  93 SW13G20   30.01R
VALPARAISO     CLOUDY    35  29  78 SW16G24   29.99R WCI  25

$$

LMZ046-743>745-251700-
SOUTHERN LAKE MICHIGAN

STATION/POSITION TIME  TEMP WIND        PRES
                       AIR  DIR/SP/G
                 (UTC) (F)  (DEG/KT/KT) (MB)
MICHIGAN CITY    1600   35  210/ 19/ 23   N/A

$$

INZ004-005-014>016-021>024-251700-
NORTH CENTRAL INDIANA

CITY           SKY/WX    TMP DP  RH WIND       PRES   REMARKS
GOSHEN         CLOUDY    35  29  78 W16       29.98R WCI  25
LOGANSPORT +   CLOUDY    36  30  80 SW13      30.04R
PERU/GRISSOM   CLOUDY    36  36 100 SW16      30.02R
ROCHESTER +    CLOUDY    37  32  81 SW13      30.02R
SOUTH BEND     CLOUDY    36  29  75 SW17G25   29.98R
WARSAW +       CLOUDY    34  30  86 W14G22    30.00R WCI  24

$$

INZ006>009-017-018-025>027-251700-
NORTHEAST INDIANA

CITY           SKY/WX    TMP DP  RH WIND       PRES   REMARKS
ANGOLA *+      CLOUDY    34  28  80 W12       29.97R WCI  25
AUBURN +       CLOUDY    36  30  80 W12G21    30.00R
FORT WAYNE     CLOUDY    36  30  79 SW15      30.02R
HUNTINGTON +   CLOUDY    36  31  82 W12G18    30.02R

$$

INZ028-029-035-036-043>045-051>053-251700-
WEST CENTRAL INDIANA

CITY           SKY/WX    TMP DP  RH WIND       PRES   REMARKS
GREENCASTLE +  CLOUDY    36  28  75 SW5       30.08R
LAFAYETTE      CLOUDY    36  30  79 SW12G18   30.04R
TERRE HAUTE    CLOUDY    38  31  76 SW10      30.10R

$$

INZ030>032-037>040-046>048-054>057-064-065-251700-
CENTRAL INDIANA

CITY           SKY/WX    TMP DP  RH WIND       PRES   REMARKS
CP ATTERBURY + CLOUDY    37  32  81 MISG      30.12R
FRANKFORT +    CLOUDY    36  32  85 SW15      30.06R
INDIANAPOLIS   CLOUDY    35  30  82 SW13      30.08R WCI  26
-EAGLE CREEK   CLOUDY    36  29  75 SW8       30.07R
KOKOMO *+      CLOUDY    36  28  75 W17       30.04R
MARION +       CLOUDY    35  30  82 SW17      30.05R WCI  25
MT COMFORT *+  CLOUDY    36  28  75 W12       30.09R
SHELBYVILLE    CLOUDY    38  31  76 SW20      30.09R
ZIONSVILLE +   CLOUDY    36  29  76 SW13      30.07R

$$

INZ033-034-041-042-049-050-058-059-251700-
EAST CENTRAL INDIANA

CITY           SKY/WX    TMP DP  RH WIND       PRES   REMARKS
MUNCIE         CLOUDY    36  29  75 W14       30.05R

$$

INZ060-061-067>069-081>083-085>088-251700-
SOUTHWEST INDIANA

CITY           SKY/WX    TMP DP  RH WIND       PRES   REMARKS
EVANSVILLE     PTSUNNY   42  33  70 SW13      30.16R
HUNTINGBURG *+ CLOUDY    39  32  75 SW10      30.16R
WASHINGTON +   CLOUDY    39  30  68 SW12      30.14R

$$

INZ062-063-066-070>080-084-089>092-251700-
SOUTH CENTRAL AND SOUTHEAST INDIANA

CITY           SKY/WX    TMP DP  RH WIND       PRES   REMARKS
BLOOMINGTON    CLOUDY    38  32  79 S8        30.10R

$$



USA.gov is the U.S. government's official web portal to all federal, state and local government web resources and services.